DMSP 5D-2 F13 DEB, 40470

Orbit data source: Space-Track

DMSP 5D-2 F13 DEB, 40470 is space debris in SSO originally from a launch on Fri, 24 Mar 1995 UTC launched from the Air Force Western Test Range (AFWTR). Debris objects in space refer to the collection of defunct objects orbiting the Earth. Examples of debris include non-operational satellites, rocket bodies, and fragments generated from explosions, collisions, or faulty payload assembly.

Loading next visibility...
Identifier
40470, 1995-015BN
Orbit
SSO
Country
Flag of USUS
Related business
Manufacturer
Unknown
Mission
Spacecraft
Bus & Motor
Unknown
Mass
Unknown
Launch date (UTC)
1995-03-24 (31 years ago)
Launch vehicle
Unknown
Launch site
Air Force Western Test Range (AFWTR)
Object type
Payload
Rocket body
Debris
Shape & HBR
Unknown shape, 0.1 m
Radar Cross Section
Small (<0.1 m²)

Expand to show TLE details & history
Last TLE update: 2 days ago

TLE from 2 days ago
0 DMSP 5D-2 F13 DEB
1 40470U 95015BN  26118.27807826  .00003083  00000-0  13749-2 0  9993
2 40470  98.9967 117.7151 0042202 227.7670 131.9924 14.23052068572812
Epoch: 2026-04-28T06:40Z
TLE epoch observation values (Epoch: 2026-04-28T06:40:25.961Z)
Latitude
-0°
Longitude
161.35124°
Altitude
838.343 km
Speed
7.423 km/s
True Right ascension
07h 50m 51s
True Declination
0° 00' 00"
Sunlit
Object was in daylight at epoch
Visualization orbit readout
Latitude
Unknown
Longitude
Unknown
Altitude
Unknown
Speed
Unknown
Apparent Right ascension
Unknown
Apparent Declination
Unknown
Sunlit
N/A
Visualization observer readout
Local Sidereal Time
02:44:44
Azimuth
Unknown
Elevation
Unknown
Doppler factor
Unknown
Orbital elements
Apogee altitude
842.563 km
Perigee altitude
781.873 km
Semi-major axis
7,190.355 km
Eccentricity
0.00422
Inclination
98.9967°
RAAN
117.7151°
Arg. of periapsis
227.767°
True anomaly
132.35056°
Mean anomaly
131.9924°
Eccentric anomaly
132.17161°
Mean motion
3.55974 °/min
Orbital period
101.13 mins
BSTAR
0.0013749

Documentation

Showing up to 5 results
|